Tucson Davis Monthan, AZ

12:08 PM MST on June 22, 2018 (GMT -0700)
Davis-Monthan Air Force Base

Weather History for KDMA - September, 2017

Change the Weather History Date:

Thursday, September 14, 2017

  Actual Average Record
Temperature  
Mean Temperature 86 °F -  
Max Temperature 97 °F 93 °F 104 °F (2000)
Min Temperature 75 °F 67 °F 57 °F (1987)
Cooling Degree Days 21    
Growing Degree Days 36 (Base 50)    
Moisture  
Dew Point 53 °F    
Average Humidity 32    
Maximum Humidity 49    
Minimum Humidity 19    
Precipitation  
Precipitation 0.00 in - - ()
Sea Level Pressure  
Sea Level Pressure 29.74 in    
Wind  
Wind Speed 10 mph (SW)    
Max Wind Speed 20 mph    
Max Gust Speed 30 mph    
Visibility 10 miles    
Events      
Averages and records for this station are not official NWS values.
T = Trace of Precipitation, MM = Missing Value Source: NWS Daily Summary

Daily Weather History Graph

Daily Weather History Graph

Search for Another Location

Airport or City:

Astronomy

Sep. 14, 2017 Rise Set
Actual Time 6:06 AM MST 6:30 PM MST
Civil Twilight 5:42 AM MST 6:54 PM MST
Nautical Twilight 5:13 AM MST 7:23 PM MST
Astronomical Twilight 4:44 AM MST 7:52 PM MST
Moon 12:21 AM MST (9/14) 2:35 PM MST (9/14)
Length of Visible Light 13h 12m
Length of Day
12h 23m
Waning Crescent, 33% of the Moon is Illuminated
Sep 14
Waning Crescent
Sep 19
New
Sep 27
First Quarter
Oct 5
Full
Oct 12
Last Quarter

Hourly Weather History & Observations

Time (MST) Temp. Heat Index Dew Point Humidity Pressure Visibility Wind Dir Wind Speed Gust Speed Precip Events Conditions
12:58 AM 79.0 °F - 53.2 °F 41% 29.89 in 10.0 mi SSE 8.1 mph - N/A   Partly Cloudy
1:58 AM 79.3 °F - 53.6 °F 41% 29.74 in 10.0 mi South 5.8 mph - N/A   Mostly Cloudy
2:58 AM 80.1 °F 80.1 °F 54.9 °F 42% 29.74 in 10.0 mi SSW 5.8 mph - N/A   Mostly Cloudy
3:58 AM 78.8 °F - 55.0 °F 44% 29.75 in 10.0 mi SW 3.5 mph - N/A   Clear
4:58 AM 75.7 °F - 55.2 °F 49% 29.76 in 10.0 mi SE 4.6 mph - N/A   Clear
5:58 AM 75.7 °F - 54.7 °F 48% 29.78 in 10.0 mi South 5.8 mph - N/A   Clear
6:58 AM 76.6 °F - 54.9 °F 47% 29.78 in 10.0 mi SSE 4.6 mph - N/A   Clear
7:58 AM 83.1 °F 82.3 °F 55.6 °F 39% 29.79 in 10.0 mi South 8.1 mph - N/A   Clear
8:58 AM 86.4 °F 84.7 °F 54.7 °F 34% 29.79 in 10.0 mi SSW 12.7 mph 20.7 mph N/A   Clear
9:58 AM 89.6 °F 87.7 °F 54.9 °F 31% 29.79 in 10.0 mi SW 12.7 mph 17.3 mph N/A   Clear
10:58 AM 93.0 °F 91.1 °F 55.0 °F 28% 29.78 in 10.0 mi SW 16.1 mph 20.7 mph N/A   Clear
11:58 AM 95.0 °F 93.0 °F 54.7 °F 26% 29.75 in 10.0 mi SW 16.1 mph 23.0 mph N/A   Partly Cloudy
11:59 AM 95.0 °F 93.0 °F 55.4 °F 26% 29.75 in 10.0 mi WSW 18.4 mph 23.0 mph N/A   Partly Cloudy
12:58 PM 97.0 °F 94.6 °F 53.1 °F 23% 29.73 in 10.0 mi SW 19.6 mph 26.5 mph N/A   Clear
1:25 PM 96.8 °F 94.4 °F 53.6 °F 23% 29.72 in 10.0 mi SSW 16.1 mph 25.3 mph N/A   Partly Cloudy
1:54 PM 96.8 °F - 51.8 °F 22% 29.70 in 10.0 mi WSW 13.8 mph 24.2 mph N/A   Scattered Clouds
1:58 PM 96.4 °F - 52.5 °F 23% 29.70 in 10.0 mi SW 16.1 mph 29.9 mph N/A   Scattered Clouds
1:59 PM 96.8 °F 94.4 °F 53.6 °F 23% 29.70 in 10.0 mi SW 12.7 mph 29.9 mph N/A   Scattered Clouds
2:07 PM 96.8 °F - 51.8 °F 22% 29.70 in 10.0 mi WSW 16.1 mph 23.0 mph N/A   Scattered Clouds
2:58 PM 97.3 °F - 50.7 °F 21% 29.69 in 10.0 mi WSW 15.0 mph 23.0 mph N/A   Scattered Clouds
3:58 PM 97.3 °F - 49.5 °F 20% 29.68 in 10.0 mi WSW 13.8 mph 25.3 mph N/A   Partly Cloudy
4:04 PM 96.8 °F - 48.2 °F 19% 29.68 in 10.0 mi West 13.8 mph 24.2 mph N/A   Scattered Clouds
4:58 PM 95.5 °F - 48.0 °F 20% 29.67 in 10.0 mi SW 17.3 mph 23.0 mph N/A   Clear
5:58 PM 92.3 °F - 50.2 °F 24% 29.68 in 10.0 mi WSW 11.5 mph 19.6 mph N/A   Clear
6:58 PM 88.9 °F - 50.5 °F 27% 29.70 in 10.0 mi WSW 11.5 mph 17.3 mph N/A   Clear
7:58 PM 87.3 °F - 51.1 °F 29% 29.72 in 10.0 mi West 8.1 mph - N/A   Clear
8:58 PM 84.9 °F 83.3 °F 53.4 °F 34% 29.74 in 10.0 mi WSW 11.5 mph - N/A   Clear
9:58 PM 82.6 °F 81.6 °F 53.6 °F 37% 29.76 in 10.0 mi SW 6.9 mph - N/A   Clear
10:58 PM 80.1 °F 80.1 °F 54.1 °F 41% 29.76 in 10.0 mi WSW 5.8 mph - N/A   Clear
11:58 PM 78.1 °F - 54.3 °F 44% 29.76 in 10.0 mi Calm Calm - N/A   Scattered Clouds